Time,TemperatureF,DewpointF,PressureIn,WindDirection,WindDirectionDegrees,WindSpeedMPH,WindSpeedGustMPH,Humidity,HourlyPrecipIn,Conditions,Clouds,dailyrainin,SoftwareType,DateUTC
2013-07-17 00:00:00,59.0,55.5,30.00,East,79,0.0,4.0,88,0.00,,---,0.04,VWS V14.01,2013-07-17 07:00:00,
2013-07-17 00:05:00,59.0,55.5,30.00,East,79,0.0,4.0,88,0.00,,---,0.00,VWS V14.01,2013-07-17 07:05:00,
2013-07-17 00:10:00,59.0,55.5,30.00,East,79,0.0,0.0,88,0.00,,---,0.00,VWS V14.01,2013-07-17 07:10:00,
2013-07-17 00:15:00,59.0,55.5,30.00,East,79,0.0,0.0,88,0.00,,---,0.00,VWS V14.01,2013-07-17 07:15:00,
2013-07-17 00:20:00,59.0,55.5,30.00,East,80,0.0,0.0,88,0.00,,---,0.00,VWS V14.01,2013-07-17 07:20:00,
2013-07-17 00:25:00,59.0,55.5,30.00,East,80,0.0,0.0,88,0.00,,---,0.00,VWS V14.01,2013-07-17 07:25:00,
2013-07-17 00:30:00,59.0,55.5,30.00,East,82,0.0,0.0,88,0.00,,---,0.00,VWS V14.01,2013-07-17 07:30:00,
2013-07-17 00:35:00,59.0,55.1,30.00,East,82,0.0,0.0,87,0.00,,---,0.00,VWS V14.01,2013-07-17 07:35:00,
2013-07-17 00:40:00,59.0,55.1,30.00,East,82,0.0,0.0,87,0.00,,---,0.00,VWS V14.01,2013-07-17 07:40:00,
2013-07-17 00:45:00,59.0,55.1,30.00,SSE,158,0.0,0.0,87,0.00,,---,0.00,VWS V14.01,2013-07-17 07:45:00,
2013-07-17 00:50:00,59.0,55.1,30.00,SSE,158,0.0,0.0,87,0.00,,---,0.00,VWS V14.01,2013-07-17 07:50:00,
2013-07-17 00:55:00,59.0,55.1,30.00,SSE,158,0.0,0.0,87,0.00,,---,0.00,VWS V14.01,2013-07-17 07:55:00,
2013-07-17 01:00:00,59.0,55.1,30.00,SSE,158,0.0,0.0,87,0.00,,---,0.00,VWS V14.01,2013-07-17 08:00:00,
2013-07-17 01:05:00,59.0,55.1,30.00,SSE,158,0.0,0.0,87,0.00,,---,0.00,VWS V14.01,2013-07-17 08:05:00,
2013-07-17 01:10:00,59.0,55.1,30.00,SSE,158,0.0,0.0,87,0.00,,---,0.00,VWS V14.01,2013-07-17 08:10:00,
2013-07-17 01:15:00,59.0,55.1,30.00,SSE,159,0.0,0.0,87,0.00,,---,0.00,VWS V14.01,2013-07-17 08:15:00,
2013-07-17 01:20:00,59.2,55.3,30.00,SSE,158,0.0,0.0,87,0.00,,---,0.00,VWS V14.01,2013-07-17 08:20:00,
2013-07-17 01:25:00,59.2,55.3,30.00,SSE,158,0.0,0.0,87,0.00,,---,0.00,VWS V14.01,2013-07-17 08:25:00,
2013-07-17 01:30:00,59.2,55.3,30.00,SSE,158,0.0,0.0,87,0.00,,---,0.00,VWS V14.01,2013-07-17 08:30:00,
2013-07-17 01:35:00,59.2,55.3,30.00,SSE,158,0.0,0.0,87,0.00,,---,0.00,VWS V14.01,2013-07-17 08:35:00,
2013-07-17 01:40:00,59.2,55.0,30.00,SSE,159,0.0,0.0,86,0.00,,---,0.00,VWS V14.01,2013-07-17 08:40:00,
2013-07-17 01:45:00,59.3,55.1,30.00,SSE,158,0.0,0.0,86,0.00,,---,0.00,VWS V14.01,2013-07-17 08:45:00,
2013-07-17 01:50:00,59.2,55.0,30.00,SSE,159,0.0,0.0,86,0.00,,---,0.00,VWS V14.01,2013-07-17 08:50:00,
2013-07-17 01:55:00,59.3,55.1,30.00,SSE,159,0.0,0.0,86,0.00,,---,0.00,VWS V14.01,2013-07-17 08:55:00,
2013-07-17 02:00:00,59.3,55.1,30.00,SSE,159,0.0,0.0,86,0.00,,---,0.00,VWS V14.01,2013-07-17 09:00:00,
2013-07-17 02:05:00,59.3,55.1,30.00,SSE,159,0.0,0.0,86,0.00,,---,0.00,VWS V14.01,2013-07-17 09:05:00,
2013-07-17 02:10:00,59.3,55.1,30.00,SSE,159,0.0,0.0,86,0.00,,---,0.00,VWS V14.01,2013-07-17 09:10:00,
2013-07-17 02:15:00,59.3,55.4,30.00,SSE,159,0.0,0.0,87,0.00,,---,0.00,VWS V14.01,2013-07-17 09:15:00,
2013-07-17 02:20:00,59.3,55.4,30.00,SSE,159,0.0,0.0,87,0.00,,---,0.00,VWS V14.01,2013-07-17 09:20:00,
2013-07-17 02:25:00,59.3,55.4,30.00,SSE,158,0.0,0.0,87,0.00,,---,0.00,VWS V14.01,2013-07-17 09:25:00,
2013-07-17 02:30:00,59.3,55.1,30.00,SSE,158,0.0,0.0,86,0.00,,---,0.00,VWS V14.01,2013-07-17 09:30:00,
2013-07-17 02:35:00,59.3,55.1,30.00,SSE,158,0.0,0.0,86,0.00,,---,0.00,VWS V14.01,2013-07-17 09:35:00,
2013-07-17 02:40:00,59.3,55.1,30.00,SSE,158,0.0,0.0,86,0.00,,---,0.00,VWS V14.01,2013-07-17 09:40:00,
2013-07-17 02:45:00,59.5,55.3,30.00,SSE,159,0.0,0.0,86,0.00,,---,0.00,VWS V14.01,2013-07-17 09:45:00,
2013-07-17 02:50:00,59.5,55.3,30.00,SSE,159,0.0,0.0,86,0.00,,---,0.00,VWS V14.01,2013-07-17 09:50:00,
2013-07-17 02:55:00,59.5,55.3,30.00,SSE,159,0.0,0.0,86,0.00,,---,0.00,VWS V14.01,2013-07-17 09:55:00,
2013-07-17 03:00:00,59.5,55.6,30.00,SSE,158,0.0,0.0,87,0.00,,---,0.00,VWS V14.01,2013-07-17 10:00:00,
2013-07-17 03:05:00,59.5,55.6,30.00,SSE,159,0.0,0.0,87,0.00,,---,0.00,VWS V14.01,2013-07-17 10:05:00,
2013-07-17 03:10:00,59.5,55.6,30.00,SSE,159,0.0,0.0,87,0.00,,---,0.00,VWS V14.01,2013-07-17 10:10:00,
2013-07-17 03:15:00,59.3,55.4,30.00,SSE,159,0.0,0.0,87,0.00,,---,0.00,VWS V14.01,2013-07-17 10:15:00,
2013-07-17 03:20:00,59.3,55.4,30.00,SSE,158,0.0,0.0,87,0.00,,---,0.00,VWS V14.01,2013-07-17 10:20:00,
2013-07-17 03:25:00,59.3,55.8,30.00,SSE,159,0.0,0.0,88,0.00,,---,0.00,VWS V14.01,2013-07-17 10:25:00,
2013-07-17 03:30:00,59.5,56.0,30.00,SSE,158,0.0,0.0,88,0.00,,---,0.00,VWS V14.01,2013-07-17 10:30:00,
2013-07-17 03:35:00,59.3,55.8,30.00,SSE,158,0.0,0.0,88,0.00,,---,0.00,VWS V14.01,2013-07-17 10:35:00,
2013-07-17 03:40:00,59.3,55.8,30.00,SSE,159,0.0,0.0,88,0.00,,---,0.00,VWS V14.01,2013-07-17 10:40:00,
2013-07-17 03:45:00,59.3,55.8,30.00,SSE,158,0.0,0.0,88,0.00,,---,0.00,VWS V14.01,2013-07-17 10:45:00,
2013-07-17 03:50:00,59.3,55.8,30.00,SSE,159,0.0,0.0,88,0.00,,---,0.00,VWS V14.01,2013-07-17 10:50:00,
2013-07-17 03:55:00,59.3,55.8,30.00,SSE,159,0.0,0.0,88,0.00,,---,0.00,VWS V14.01,2013-07-17 10:55:00,
2013-07-17 04:00:00,59.3,55.8,30.00,SSE,159,0.0,0.0,88,0.00,,---,0.00,VWS V14.01,2013-07-17 11:00:00,
2013-07-17 04:05:00,59.3,55.8,30.00,SSE,159,0.0,0.0,88,0.00,,---,0.00,VWS V14.01,2013-07-17 11:05:00,
2013-07-17 04:10:00,59.3,55.8,30.00,SSE,158,0.0,0.0,88,0.00,,---,0.00,VWS V14.01,2013-07-17 11:10:00,
2013-07-17 04:15:00,59.2,55.7,30.00,SSE,159,0.0,0.0,88,0.00,,---,0.00,VWS V14.01,2013-07-17 11:15:00,
2013-07-17 04:20:00,59.2,55.7,30.00,SSE,159,0.0,0.0,88,0.00,,---,0.00,VWS V14.01,2013-07-17 11:20:00,
2013-07-17 04:25:00,59.2,55.7,30.00,SSE,159,0.0,0.0,88,0.00,,---,0.00,VWS V14.01,2013-07-17 11:25:00,
2013-07-17 04:30:00,59.0,55.1,30.00,SSE,158,0.0,0.0,87,0.00,,---,0.00,VWS V14.01,2013-07-17 11:30:00,
2013-07-17 04:35:00,59.0,55.1,30.00,SSE,159,0.0,0.0,87,0.00,,---,0.00,VWS V14.01,2013-07-17 11:35:00,
2013-07-17 04:40:00,59.0,55.1,30.00,SSE,159,0.0,0.0,87,0.00,,---,0.00,VWS V14.01,2013-07-17 11:40:00,
2013-07-17 04:45:00,59.0,55.1,30.00,SSE,159,0.0,0.0,87,0.00,,---,0.00,VWS V14.01,2013-07-17 11:45:00,
2013-07-17 04:50:00,59.0,55.1,30.00,SSE,159,0.0,0.0,87,0.00,,---,0.00,VWS V14.01,2013-07-17 11:50:00,
2013-07-17 04:55:00,58.9,55.4,30.00,South,171,0.0,0.0,88,0.00,,---,0.00,VWS V14.01,2013-07-17 11:55:00,
2013-07-17 05:00:00,58.9,55.4,30.00,South,171,0.0,0.0,88,0.00,,---,0.00,VWS V14.01,2013-07-17 12:00:00,
2013-07-17 05:05:00,58.7,55.2,30.00,South,172,0.0,0.0,88,0.00,,---,0.00,VWS V14.01,2013-07-17 12:05:00,
2013-07-17 05:10:00,58.7,55.2,30.00,South,172,0.0,0.0,88,0.00,,---,0.00,VWS V14.01,2013-07-17 12:10:00,
2013-07-17 05:15:00,58.7,55.2,30.00,South,175,0.0,0.0,88,0.00,,---,0.00,VWS V14.01,2013-07-17 12:15:00,
2013-07-17 05:20:00,58.7,55.2,30.00,South,175,0.0,0.0,88,0.00,,---,0.00,VWS V14.01,2013-07-17 12:20:00,
2013-07-17 05:25:00,58.6,55.1,30.00,South,185,0.0,0.0,88,0.00,,---,0.00,VWS V14.01,2013-07-17 12:25:00,
2013-07-17 05:30:00,58.6,55.1,30.00,South,185,0.0,0.0,88,0.00,,---,0.00,VWS V14.01,2013-07-17 12:30:00,
2013-07-17 05:35:00,58.6,55.1,30.00,South,185,0.0,0.0,88,0.00,,---,0.00,VWS V14.01,2013-07-17 12:35:00,
2013-07-17 05:40:00,58.6,55.1,30.00,South,185,0.0,0.0,88,0.00,,---,0.00,VWS V14.01,2013-07-17 12:40:00,
2013-07-17 05:45:00,58.4,55.2,30.00,South,185,0.0,0.0,89,0.00,,---,0.00,VWS V14.01,2013-07-17 12:45:00,
2013-07-17 05:50:00,58.4,55.2,30.01,South,185,0.0,0.0,89,0.00,,---,0.00,VWS V14.01,2013-07-17 12:50:00,
2013-07-17 05:56:00,58.4,55.2,30.01,South,185,0.0,0.0,89,0.00,,---,0.00,VWS V14.01,2013-07-17 12:56:00,
2013-07-17 06:01:00,58.3,55.1,30.01,South,185,0.0,0.0,89,0.00,,---,0.00,VWS V14.01,2013-07-17 13:01:00,
2013-07-17 06:06:00,58.3,55.1,30.02,South,185,0.0,0.0,89,0.00,,---,0.00,VWS V14.01,2013-07-17 13:06:00,
2013-07-17 06:10:00,58.3,55.1,30.02,South,185,0.0,0.0,89,0.00,,---,0.00,VWS V14.01,2013-07-17 13:10:00,
2013-07-17 06:16:00,58.3,55.1,30.02,South,185,0.0,0.0,89,0.00,,---,0.00,VWS V14.01,2013-07-17 13:16:00,
2013-07-17 06:21:00,58.4,55.2,30.02,South,185,0.0,0.0,89,0.00,,---,0.00,VWS V14.01,2013-07-17 13:21:00,
2013-07-17 06:26:00,58.4,55.2,30.02,South,185,0.0,0.0,89,0.00,,---,0.00,VWS V14.01,2013-07-17 13:26:00,
2013-07-17 06:31:00,58.4,55.2,30.02,South,185,0.0,0.0,89,0.00,,---,0.00,VWS V14.01,2013-07-17 13:31:00,
2013-07-17 06:36:00,58.6,55.4,30.02,South,185,0.0,0.0,89,0.00,,---,0.00,VWS V14.01,2013-07-17 13:36:00,
2013-07-17 06:41:00,58.6,55.4,30.02,SSW,209,0.0,0.0,89,0.00,,---,0.00,VWS V14.01,2013-07-17 13:41:00,
2013-07-17 06:46:00,58.6,55.4,30.02,SSW,209,0.0,0.0,89,0.00,,---,0.00,VWS V14.01,2013-07-17 13:46:00,
2013-07-17 06:51:00,58.4,55.2,30.02,SSW,209,0.0,0.0,89,0.00,,---,0.00,VWS V14.01,2013-07-17 13:51:00,
2013-07-17 06:56:00,58.4,55.2,30.02,SSW,209,0.0,0.0,89,0.00,,---,0.00,VWS V14.01,2013-07-17 13:56:00,
2013-07-17 07:01:00,58.6,55.4,30.02,SSW,209,0.0,0.0,89,0.00,,---,0.00,VWS V14.01,2013-07-17 14:01:00,
2013-07-17 07:06:00,58.7,55.2,30.02,SSW,209,0.0,0.0,88,0.00,,---,0.00,VWS V14.01,2013-07-17 14:06:00,
2013-07-17 07:11:00,58.7,55.2,30.02,SSW,209,0.0,0.0,88,0.00,,---,0.00,VWS V14.01,2013-07-17 14:11:00,
2013-07-17 07:16:00,58.7,55.2,30.02,SSW,209,0.0,0.0,88,0.00,,---,0.00,VWS V14.01,2013-07-17 14:16:00,
2013-07-17 07:21:00,58.9,55.4,30.03,SSW,209,0.0,0.0,88,0.00,,---,0.00,VWS V14.01,2013-07-17 14:21:00,
2013-07-17 07:26:00,59.0,55.5,30.03,North,5,0.0,0.0,88,0.00,,---,0.00,VWS V14.01,2013-07-17 14:26:00,
2013-07-17 07:31:00,59.0,55.5,30.03,NNE,12,0.0,0.0,88,0.00,,---,0.00,VWS V14.01,2013-07-17 14:31:00,
2013-07-17 07:36:00,59.3,55.4,30.03,NNE,13,0.0,0.0,87,0.00,,---,0.00,VWS V14.01,2013-07-17 14:36:00,
2013-07-17 07:41:00,59.5,55.6,30.03,NNE,13,0.0,0.0,87,0.00,,---,0.00,VWS V14.01,2013-07-17 14:41:00,
2013-07-17 07:46:00,59.6,55.4,30.03,NE,36,0.0,0.0,86,0.00,,---,0.00,VWS V14.01,2013-07-17 14:46:00,
2013-07-17 07:51:00,59.8,55.6,30.03,SW,218,0.0,1.0,86,0.00,,---,0.00,VWS V14.01,2013-07-17 14:51:00,
2013-07-17 07:56:00,59.9,55.7,30.03,SW,218,1.0,1.0,86,0.00,,---,0.00,VWS V14.01,2013-07-17 14:56:00,
2013-07-17 08:01:00,60.1,55.6,30.03,SW,219,0.0,1.0,85,0.00,,---,0.00,VWS V14.01,2013-07-17 15:01:00,
2013-07-17 08:06:00,60.2,55.3,30.04,SW,219,0.0,0.0,84,0.00,,---,0.00,VWS V14.01,2013-07-17 15:06:00,
2013-07-17 08:11:00,60.4,55.5,30.04,SW,219,0.0,0.0,84,0.00,,---,0.00,VWS V14.01,2013-07-17 15:11:00,
2013-07-17 08:16:00,60.5,55.3,30.04,SW,219,0.0,1.0,83,0.00,,---,0.00,VWS V14.01,2013-07-17 15:16:00,
2013-07-17 08:21:00,60.9,55.4,30.04,SW,219,0.0,1.0,82,0.00,,---,0.00,VWS V14.01,2013-07-17 15:21:00,
2013-07-17 08:26:00,61.2,55.7,30.04,SW,219,0.0,1.0,82,0.00,,---,0.00,VWS V14.01,2013-07-17 15:26:00,
2013-07-17 08:31:00,61.3,55.4,30.04,WNW,296,0.0,2.0,81,0.00,,---,0.00,VWS V14.01,2013-07-17 15:31:00,
2013-07-17 08:36:00,61.6,55.7,30.05,WNW,296,0.0,0.0,81,0.00,,---,0.00,VWS V14.01,2013-07-17 15:36:00,
2013-07-17 08:41:00,61.8,55.6,30.05,WNW,296,0.0,0.0,80,0.00,,---,0.00,VWS V14.01,2013-07-17 15:41:00,
2013-07-17 08:46:00,62.0,55.8,30.05,North,355,3.0,3.0,80,0.00,,---,0.00,VWS V14.01,2013-07-17 15:46:00,
2013-07-17 08:51:00,62.3,55.7,30.05,North,355,0.0,3.0,79,0.00,,---,0.00,VWS V14.01,2013-07-17 15:51:00,
2013-07-17 08:56:00,62.3,55.4,30.05,North,355,0.0,3.0,78,0.00,,---,0.00,VWS V14.01,2013-07-17 15:56:00,
2013-07-17 09:01:00,62.6,55.7,30.05,North,351,0.0,3.0,78,0.00,,---,0.00,VWS V14.01,2013-07-17 16:01:00,
2013-07-17 09:06:00,63.1,55.8,30.05,NE,34,0.0,2.0,77,0.00,,---,0.00,VWS V14.01,2013-07-17 16:06:00,
2013-07-17 09:11:00,63.5,55.4,30.05,North,355,0.0,2.0,75,0.00,,---,0.00,VWS V14.01,2013-07-17 16:11:00,
2013-07-17 09:16:00,64.0,55.9,30.05,NW,315,0.0,2.0,75,0.00,,---,0.00,VWS V14.01,2013-07-17 16:16:00,
2013-07-17 09:21:00,64.3,55.8,30.05,NNW,327,0.0,2.0,74,0.00,,---,0.00,VWS V14.01,2013-07-17 16:21:00,
2013-07-17 09:26:00,65.0,55.8,30.05,West,262,0.0,2.0,72,0.00,,---,0.00,VWS V14.01,2013-07-17 16:26:00,
2013-07-17 09:31:00,65.3,56.4,30.05,West,265,1.0,2.0,73,0.00,,---,0.00,VWS V14.01,2013-07-17 16:31:00,
2013-07-17 09:36:00,66.3,56.6,30.04,North,355,0.0,5.0,71,0.00,,---,0.00,VWS V14.01,2013-07-17 16:36:00,
2013-07-17 09:41:00,67.4,56.9,30.04,NW,323,0.0,5.0,69,0.00,,---,0.00,VWS V14.01,2013-07-17 16:41:00,
2013-07-17 09:46:00,68.1,57.2,30.04,North,350,0.0,5.0,68,0.00,,---,0.00,VWS V14.01,2013-07-17 16:46:00,
2013-07-17 09:51:00,67.9,57.0,30.04,West,260,0.0,5.0,68,0.00,,---,0.00,VWS V14.01,2013-07-17 16:51:00,
2013-07-17 09:56:00,68.4,57.0,30.04,NNW,331,0.0,5.0,67,0.00,,---,0.00,VWS V14.01,2013-07-17 16:56:00,
2013-07-17 10:01:00,68.8,57.4,30.04,NNW,343,0.0,5.0,67,0.00,,---,0.00,VWS V14.01,2013-07-17 17:01:00,
2013-07-17 10:06:00,69.1,57.3,30.04,WSW,247,2.0,4.0,66,0.00,,---,0.00,VWS V14.01,2013-07-17 17:06:00,
2013-07-17 10:11:00,69.3,57.0,30.04,WNW,291,0.0,4.0,65,0.00,,---,0.00,VWS V14.01,2013-07-17 17:11:00,
2013-07-17 10:16:00,70.1,57.8,30.04,WNW,282,0.0,4.0,65,0.00,,---,0.00,VWS V14.01,2013-07-17 17:16:00,
2013-07-17 10:21:00,70.3,57.6,30.04,NNW,346,0.0,5.0,64,0.00,,---,0.00,VWS V14.01,2013-07-17 17:21:00,
2013-07-17 10:26:00,70.3,57.6,30.04,WSW,237,0.0,5.0,64,0.00,,---,0.00,VWS V14.01,2013-07-17 17:26:00,
2013-07-17 10:31:00,69.9,57.6,30.04,NNW,342,0.0,5.0,65,0.00,,---,0.00,VWS V14.01,2013-07-17 17:31:00,
2013-07-17 10:36:00,70.4,57.2,30.04,NNW,342,0.0,0.0,63,0.00,,---,0.00,VWS V14.01,2013-07-17 17:36:00,
2013-07-17 10:41:00,70.9,58.1,30.04,NNW,332,0.0,3.0,64,0.00,,---,0.00,VWS V14.01,2013-07-17 17:41:00,
2013-07-17 10:46:00,71.3,57.6,30.04,West,273,1.0,3.0,62,0.00,,---,0.00,VWS V14.01,2013-07-17 17:46:00,
2013-07-17 10:51:00,71.8,58.5,30.04,West,269,0.0,3.0,63,0.00,,---,0.00,VWS V14.01,2013-07-17 17:51:00,
2013-07-17 10:56:00,72.3,58.1,30.04,West,267,0.0,4.0,61,0.00,,---,0.00,VWS V14.01,2013-07-17 17:56:00,
2013-07-17 11:01:00,72.5,58.8,30.04,West,267,0.0,5.0,62,0.00,,---,0.00,VWS V14.01,2013-07-17 18:01:00,
2013-07-17 11:06:00,72.7,58.9,30.03,WNW,299,0.0,4.0,62,0.00,,---,0.00,VWS V14.01,2013-07-17 18:06:00,
2013-07-17 11:11:00,73.2,59.0,30.03,NW,313,0.0,4.0,61,0.00,,---,0.00,VWS V14.01,2013-07-17 18:11:00,
2013-07-17 11:16:00,73.9,59.2,30.03,NNW,338,0.0,4.0,60,0.00,,---,0.00,VWS V14.01,2013-07-17 18:16:00,
2013-07-17 11:21:00,74.4,59.2,30.03,WSW,241,2.0,6.0,59,0.00,,---,0.00,VWS V14.01,2013-07-17 18:21:00,
2013-07-17 11:26:00,73.9,58.7,30.03,West,273,0.0,6.0,59,0.00,,---,0.00,VWS V14.01,2013-07-17 18:26:00,
2013-07-17 11:31:00,73.9,59.2,30.03,West,275,0.0,6.0,60,0.00,,---,0.00,VWS V14.01,2013-07-17 18:31:00,
2013-07-17 11:36:00,74.0,58.8,30.04,WNW,283,0.0,4.0,59,0.00,,---,0.00,VWS V14.01,2013-07-17 18:36:00,
2013-07-17 11:41:00,73.7,59.0,30.04,WSW,250,0.0,6.0,60,0.00,,---,0.00,VWS V14.01,2013-07-17 18:41:00,
2013-07-17 11:46:00,72.8,58.6,30.04,WNW,294,3.0,6.0,61,0.00,,---,0.00,VWS V14.01,2013-07-17 18:46:00,
2013-07-17 11:51:00,72.7,58.5,30.04,NNW,344,0.0,6.0,61,0.00,,---,0.00,VWS V14.01,2013-07-17 18:51:00,
2013-07-17 11:56:00,72.3,58.6,30.04,West,277,5.0,6.0,62,0.00,,---,0.00,VWS V14.01,2013-07-17 18:56:00,
2013-07-17 12:01:00,73.2,58.5,30.04,WNW,295,0.0,7.0,60,0.00,,---,0.00,VWS V14.01,2013-07-17 19:01:00,
2013-07-17 12:06:00,73.7,58.5,30.04,WNW,286,0.0,5.0,59,0.00,,---,0.00,VWS V14.01,2013-07-17 19:06:00,
2013-07-17 12:12:00,73.9,58.2,30.04,WNW,294,0.0,8.0,58,0.00,,---,0.00,VWS V14.01,2013-07-17 19:12:00,
2013-07-17 12:17:00,73.5,58.3,30.04,West,275,0.0,8.0,59,0.00,,---,0.00,VWS V14.01,2013-07-17 19:17:00,
2013-07-17 12:21:00,73.0,58.3,30.05,SW,232,4.0,8.0,60,0.00,,---,0.00,VWS V14.01,2013-07-17 19:21:00,
2013-07-17 12:27:00,72.1,57.9,30.05,WNW,302,0.0,9.0,61,0.00,,---,0.00,VWS V14.01,2013-07-17 19:27:00,
2013-07-17 12:32:00,72.7,58.5,30.05,West,265,0.0,9.0,61,0.00,,---,0.00,VWS V14.01,2013-07-17 19:32:00,
2013-07-17 12:53:00,74.4,58.0,30.04,WSW,256,3.0,-999.0,56,-99.99,,,0.00,weatherlink.com 1.10,2013-07-17 19:53:00,
2013-07-17 12:58:00,74.0,58.3,30.04,WSW,250,3.0,9.0,58,0.00,,---,0.00,VWS V14.01,2013-07-17 19:58:00,
2013-07-17 13:03:00,73.9,58.2,30.04,West,261,0.0,9.0,58,0.00,,---,0.00,VWS V14.01,2013-07-17 20:03:00,
2013-07-17 13:08:00,73.9,58.2,30.04,WNW,285,0.0,6.0,58,0.00,,---,0.00,VWS V14.01,2013-07-17 20:08:00,
2013-07-17 13:13:00,73.9,57.7,30.04,SSW,205,3.0,6.0,57,0.00,,---,0.00,VWS V14.01,2013-07-17 20:13:00,
2013-07-17 13:18:00,73.9,58.2,30.04,West,262,4.0,10.0,58,0.00,,---,0.00,VWS V14.01,2013-07-17 20:18:00,
2013-07-17 13:23:00,73.9,57.7,30.04,WNW,285,3.0,10.0,57,0.00,,---,0.00,VWS V14.01,2013-07-17 20:23:00,
2013-07-17 13:28:00,74.0,57.8,30.04,WSW,248,3.0,10.0,57,0.00,,---,0.00,VWS V14.01,2013-07-17 20:28:00,
2013-07-17 13:33:00,73.5,58.3,30.04,SW,235,1.0,10.0,59,0.00,,---,0.00,VWS V14.01,2013-07-17 20:33:00,
2013-07-17 13:38:00,73.5,58.3,30.04,WNW,299,0.0,6.0,59,0.00,,---,0.00,VWS V14.01,2013-07-17 20:38:00,
2013-07-17 13:43:00,74.0,57.8,30.04,West,260,1.0,7.0,57,0.00,,---,0.00,VWS V14.01,2013-07-17 20:43:00,
2013-07-17 13:49:00,74.0,57.8,30.04,WSW,240,0.0,8.0,57,0.00,,---,0.00,VWS V14.01,2013-07-17 20:49:00,
2013-07-17 13:54:00,73.3,58.1,30.04,WNW,284,0.0,8.0,59,0.00,,---,0.00,VWS V14.01,2013-07-17 20:54:00,
2013-07-17 13:59:00,73.0,57.8,30.04,WSW,252,0.0,8.0,59,0.00,,---,0.00,VWS V14.01,2013-07-17 20:59:00,
2013-07-17 14:04:00,72.8,57.2,30.04,SSW,210,1.0,8.0,58,0.00,,---,0.00,VWS V14.01,2013-07-17 21:04:00,
2013-07-17 14:09:00,72.7,57.6,30.04,WNW,288,0.0,6.0,59,0.00,,---,0.00,VWS V14.01,2013-07-17 21:09:00,
2013-07-17 14:14:00,73.2,57.5,30.04,SSW,207,8.0,8.0,58,0.00,,---,0.00,VWS V14.01,2013-07-17 21:14:00,
2013-07-17 14:19:00,73.0,57.8,30.04,WSW,254,0.0,8.0,59,0.00,,---,0.00,VWS V14.01,2013-07-17 21:19:00,
2013-07-17 14:24:00,73.7,57.5,30.04,West,279,5.0,8.0,57,0.00,,---,0.00,VWS V14.01,2013-07-17 21:24:00,
2013-07-17 14:29:00,74.6,57.4,30.04,WNW,291,7.0,8.0,55,0.00,,---,0.00,VWS V14.01,2013-07-17 21:29:00,
2013-07-17 14:34:00,73.9,57.7,30.03,WSW,248,4.0,9.0,57,0.00,,---,0.00,VWS V14.01,2013-07-17 21:34:00,
2013-07-17 14:39:00,73.2,57.5,30.03,West,261,0.0,11.0,58,0.00,,---,0.00,VWS V14.01,2013-07-17 21:39:00,
2013-07-17 14:44:00,73.3,57.2,30.03,WSW,239,8.0,11.0,57,0.00,,---,0.00,VWS V14.01,2013-07-17 21:44:00,
2013-07-17 14:49:00,73.5,57.8,30.03,West,267,0.0,11.0,58,0.00,,---,0.00,VWS V14.01,2013-07-17 21:49:00,
2013-07-17 14:54:00,73.3,57.7,30.03,WSW,255,3.0,11.0,58,0.00,,---,0.00,VWS V14.01,2013-07-17 21:54:00,
2013-07-17 14:59:00,73.3,57.2,30.03,WNW,298,0.0,11.0,57,0.00,,---,0.00,VWS V14.01,2013-07-17 21:59:00,
2013-07-17 15:04:00,73.7,57.0,30.04,SW,217,5.0,11.0,56,0.00,,---,0.00,VWS V14.01,2013-07-17 22:04:00,
2013-07-17 15:09:00,73.2,57.1,30.04,SSW,202,2.0,8.0,57,0.00,,---,0.00,VWS V14.01,2013-07-17 22:09:00,
2013-07-17 15:14:00,72.1,57.0,30.04,West,270,5.0,8.0,59,0.00,,---,0.00,VWS V14.01,2013-07-17 22:14:00,
2013-07-17 15:19:00,71.8,56.7,30.04,West,278,0.0,9.0,59,0.00,,---,0.00,VWS V14.01,2013-07-17 22:19:00,
2013-07-17 15:24:00,72.0,56.9,30.04,West,273,3.0,10.0,59,0.00,,---,0.00,VWS V14.01,2013-07-17 22:24:00,
2013-07-17 15:29:00,72.3,56.7,30.04,WSW,254,8.0,10.0,58,0.00,,---,0.00,VWS V14.01,2013-07-17 22:29:00,
2013-07-17 15:34:00,72.3,57.2,30.03,SW,235,0.0,10.0,59,0.00,,---,0.00,VWS V14.01,2013-07-17 22:34:00,
2013-07-17 15:39:00,72.0,56.9,30.03,SW,217,0.0,9.0,59,0.00,,---,0.00,VWS V14.01,2013-07-17 22:39:00,
2013-07-17 15:44:00,72.0,56.4,30.03,SSW,206,3.0,9.0,58,0.00,,---,0.00,VWS V14.01,2013-07-17 22:44:00,
2013-07-17 15:49:00,71.6,56.5,30.04,West,263,6.0,10.0,59,0.00,,---,0.00,VWS V14.01,2013-07-17 22:49:00,
2013-07-17 15:54:00,71.5,56.9,30.04,SW,229,0.0,10.0,60,0.00,,---,0.00,VWS V14.01,2013-07-17 22:54:00,
2013-07-17 15:59:00,71.6,56.5,30.04,SW,234,8.0,10.0,59,0.00,,---,0.00,VWS V14.01,2013-07-17 22:59:00,
2013-07-17 16:04:00,71.3,56.7,30.03,WNW,287,5.0,12.0,60,0.00,,---,0.00,VWS V14.01,2013-07-17 23:04:00,
2013-07-17 16:09:00,70.6,56.5,30.03,West,281,4.0,9.0,61,0.00,,---,0.00,VWS V14.01,2013-07-17 23:09:00,
2013-07-17 16:14:00,70.8,56.2,30.03,WNW,302,0.0,9.0,60,0.00,,---,0.00,VWS V14.01,2013-07-17 23:14:00,
2013-07-17 16:19:00,71.3,56.2,30.03,SSW,198,0.0,13.0,59,0.00,,---,0.00,VWS V14.01,2013-07-17 23:19:00,
2013-07-17 16:24:00,71.1,56.5,30.03,WSW,240,0.0,13.0,60,0.00,,---,0.00,VWS V14.01,2013-07-17 23:24:00,
2013-07-17 16:25:00,71.1,56.5,30.03,WSW,241,0.0,13.0,60,0.00,,---,0.00,VWS V14.01,2013-07-17 23:25:00,
2013-07-17 16:30:00,70.6,57.0,30.03,WSW,237,3.0,13.0,62,0.00,,---,0.00,VWS V14.01,2013-07-17 23:30:00,
2013-07-17 16:35:00,70.6,56.5,30.03,WSW,237,0.0,0.0,61,0.00,,---,0.00,VWS V14.01,2013-07-17 23:35:00,
2013-07-17 16:40:00,70.6,56.5,30.03,West,264,0.0,9.0,61,0.00,,---,0.00,VWS V14.01,2013-07-17 23:40:00,
2013-07-17 16:45:00,70.8,56.2,30.03,SW,221,7.0,9.0,60,0.00,,---,0.00,VWS V14.01,2013-07-17 23:45:00,
2013-07-17 16:50:00,70.6,56.5,30.02,West,261,0.0,9.0,61,0.00,,---,0.00,VWS V14.01,2013-07-17 23:50:00,
2013-07-17 16:55:00,70.6,56.1,30.02,SSW,200,4.0,10.0,60,0.00,,---,0.00,VWS V14.01,2013-07-17 23:55:00,
2013-07-17 17:00:00,70.6,56.5,30.02,West,264,2.0,10.0,61,0.00,,---,0.00,VWS V14.01,2013-07-18 00:00:00,
2013-07-17 17:05:00,69.9,56.3,30.02,West,259,2.0,5.0,62,0.00,,---,0.00,VWS V14.01,2013-07-18 00:05:00,
2013-07-17 17:10:00,69.6,56.0,30.02,West,276,7.0,8.0,62,0.00,,---,0.00,VWS V14.01,2013-07-18 00:10:00,
2013-07-17 17:15:00,69.6,56.0,30.02,West,263,5.0,-999.0,62,-99.99,,,0.00,weatherlink.com 1.10,2013-07-18 00:15:00,
2013-07-17 17:20:00,69.8,56.2,30.02,South,190,0.0,9.0,62,0.00,,---,0.00,VWS V14.01,2013-07-18 00:20:00,
2013-07-17 17:25:00,69.1,55.5,30.02,WSW,254,8.0,9.0,62,0.00,,---,0.00,VWS V14.01,2013-07-18 00:25:00,
2013-07-17 17:30:00,69.1,55.5,30.02,SW,227,0.0,11.0,62,0.00,,---,0.00,VWS V14.01,2013-07-18 00:30:00,
2013-07-17 17:35:00,69.1,56.0,30.02,West,269,0.0,0.0,63,0.00,,---,0.00,VWS V14.01,2013-07-18 00:35:00,
2013-07-17 17:40:00,68.8,55.7,30.02,WSW,254,0.0,11.0,63,0.00,,---,0.00,VWS V14.01,2013-07-18 00:40:00,
2013-07-17 17:45:00,68.6,55.5,30.02,SSW,213,1.0,11.0,63,0.00,,---,0.00,VWS V14.01,2013-07-18 00:45:00,
2013-07-17 17:50:00,68.3,55.7,30.02,WSW,242,4.0,11.0,64,0.00,,---,0.00,VWS V14.01,2013-07-18 00:50:00,
2013-07-17 17:55:00,68.1,55.5,30.02,SSW,207,0.0,11.0,64,0.00,,---,0.00,VWS V14.01,2013-07-18 00:55:00,
2013-07-17 18:00:00,67.9,55.7,30.02,SSW,194,0.0,11.0,65,0.00,,---,0.00,VWS V14.01,2013-07-18 01:00:00,
2013-07-17 18:05:00,67.9,55.7,30.02,SSW,211,1.0,3.0,65,0.00,,---,0.00,VWS V14.01,2013-07-18 01:05:00,
2013-07-17 18:10:00,67.8,55.6,30.02,West,271,0.0,5.0,65,0.00,,---,0.00,VWS V14.01,2013-07-18 01:10:00,
2013-07-17 18:15:00,67.8,55.6,30.02,West,271,0.0,8.0,65,0.00,,---,0.00,VWS V14.01,2013-07-18 01:15:00,
2013-07-17 18:20:00,67.8,55.6,30.02,WSW,252,3.0,9.0,65,0.00,,---,0.00,VWS V14.01,2013-07-18 01:20:00,
2013-07-17 18:25:00,67.6,55.8,30.02,West,265,0.0,9.0,66,0.00,,---,0.00,VWS V14.01,2013-07-18 01:25:00,
2013-07-17 18:30:00,67.4,55.2,30.02,East,100,0.0,9.0,65,0.00,,---,0.00,VWS V14.01,2013-07-18 01:30:00,
2013-07-17 18:35:00,67.4,55.7,30.02,SSW,207,4.0,4.0,66,0.00,,---,0.00,VWS V14.01,2013-07-18 01:35:00,
2013-07-17 18:40:00,66.9,55.6,30.02,SSW,213,1.0,4.0,67,0.00,,---,0.00,VWS V14.01,2013-07-18 01:40:00,
2013-07-17 18:45:00,66.8,55.5,30.02,SSW,197,3.0,9.0,67,0.00,,---,0.00,VWS V14.01,2013-07-18 01:45:00,
2013-07-17 18:50:00,66.4,55.5,30.02,SW,225,0.0,9.0,68,0.00,,---,0.00,VWS V14.01,2013-07-18 01:50:00,
2013-07-17 18:55:00,66.3,55.4,30.02,SSW,206,3.0,9.0,68,0.00,,---,0.00,VWS V14.01,2013-07-18 01:55:00,
2013-07-17 19:00:00,65.8,55.4,30.02,WSW,250,3.0,9.0,69,0.00,,---,0.00,VWS V14.01,2013-07-18 02:00:00,
2013-07-17 19:05:00,65.5,55.1,30.02,South,190,0.0,0.0,69,0.00,,---,0.00,VWS V14.01,2013-07-18 02:05:00,
2013-07-17 19:10:00,65.0,55.0,30.02,SW,225,7.0,8.0,70,0.00,,---,0.00,VWS V14.01,2013-07-18 02:10:00,
2013-07-17 19:15:00,64.3,55.1,30.02,SW,218,6.0,9.0,72,0.00,,---,0.00,VWS V14.01,2013-07-18 02:15:00,
2013-07-17 19:20:00,63.5,54.7,30.03,SSW,209,5.0,9.0,73,0.00,,---,0.00,VWS V14.01,2013-07-18 02:20:00,
2013-07-17 19:25:00,62.7,54.7,30.03,WSW,250,0.0,9.0,75,0.00,,---,0.00,VWS V14.01,2013-07-18 02:25:00,
2013-07-17 19:30:00,62.4,54.8,30.03,SW,223,5.0,9.0,76,0.00,,---,0.00,VWS V14.01,2013-07-18 02:30:00,
2013-07-17 19:35:00,61.8,54.5,30.03,WSW,246,3.0,5.0,77,0.00,,---,0.00,VWS V14.01,2013-07-18 02:35:00,
2013-07-17 19:41:00,61.5,54.6,30.03,SSW,206,6.0,6.0,78,0.00,,---,0.00,VWS V14.01,2013-07-18 02:41:00,
2013-07-17 19:46:00,61.0,54.5,30.03,SW,219,0.0,8.0,79,0.00,,---,0.00,VWS V14.01,2013-07-18 02:46:00,
2013-07-17 19:50:00,60.7,54.5,30.03,SSW,204,0.0,8.0,80,0.00,,---,0.00,VWS V14.01,2013-07-18 02:50:00,
2013-07-17 19:55:00,60.4,54.2,30.03,SSW,205,4.0,9.0,80,0.00,,---,0.00,VWS V14.01,2013-07-18 02:55:00,
2013-07-17 20:01:00,60.1,54.3,30.03,SW,234,3.0,9.0,81,0.00,,---,0.00,VWS V14.01,2013-07-18 03:01:00,
2013-07-17 20:06:00,59.8,54.3,30.03,WSW,237,0.0,5.0,82,0.00,,---,0.00,VWS V14.01,2013-07-18 03:06:00,
2013-07-17 20:11:00,59.3,54.2,30.03,SSW,206,0.0,7.0,83,0.00,,---,0.00,VWS V14.01,2013-07-18 03:11:00,
2013-07-17 20:16:00,59.0,53.8,30.03,WSW,255,0.0,7.0,83,0.00,,---,0.00,VWS V14.01,2013-07-18 03:16:00,
2013-07-17 20:21:00,58.7,53.9,30.03,West,280,0.0,7.0,84,0.00,,---,0.00,VWS V14.01,2013-07-18 03:21:00,
2013-07-17 20:26:00,58.6,53.8,30.03,SW,215,0.0,7.0,84,0.00,,---,0.00,VWS V14.01,2013-07-18 03:26:00,
2013-07-17 20:31:00,58.4,53.9,30.03,SW,222,0.0,7.0,85,0.00,,---,0.00,VWS V14.01,2013-07-18 03:31:00,
2013-07-17 20:36:00,58.3,53.8,30.03,South,177,0.0,0.0,85,0.00,,---,0.00,VWS V14.01,2013-07-18 03:36:00,
2013-07-17 20:41:00,58.1,53.9,30.03,South,188,0.0,4.0,86,0.00,,---,0.00,VWS V14.01,2013-07-18 03:41:00,
2013-07-17 20:46:00,58.0,53.8,30.03,ENE,59,0.0,4.0,86,0.00,,---,0.00,VWS V14.01,2013-07-18 03:46:00,
2013-07-17 20:51:00,58.0,53.8,30.03,SSW,193,0.0,4.0,86,0.00,,---,0.00,VWS V14.01,2013-07-18 03:51:00,
2013-07-17 20:56:00,57.6,53.5,30.03,South,190,0.0,4.0,86,0.00,,---,0.00,VWS V14.01,2013-07-18 03:56:00,
2013-07-17 21:01:00,57.6,53.8,30.03,SSE,161,0.0,4.0,87,0.00,,---,0.00,VWS V14.01,2013-07-18 04:01:00,
2013-07-17 21:02:00,57.6,53.8,30.03,SW,214,0.0,4.0,87,0.00,,---,0.00,VWS V14.01,2013-07-18 04:02:00,
2013-07-17 21:07:00,57.6,53.8,30.03,SW,226,0.0,2.0,87,0.00,,---,0.00,VWS V14.01,2013-07-18 04:07:00,
2013-07-17 21:12:00,57.5,53.7,30.03,SW,216,0.0,2.0,87,0.00,,---,0.00,VWS V14.01,2013-07-18 04:12:00,
2013-07-17 21:17:00,57.3,53.8,30.03,SSW,213,0.0,5.0,88,0.00,,---,0.00,VWS V14.01,2013-07-18 04:17:00,
2013-07-17 21:22:00,57.3,53.8,30.04,SSW,213,0.0,5.0,88,0.00,,---,0.00,VWS V14.01,2013-07-18 04:22:00,
2013-07-17 21:27:00,57.3,53.8,30.04,SSW,213,0.0,5.0,88,0.00,,---,0.00,VWS V14.01,2013-07-18 04:27:00,
2013-07-17 21:32:00,57.3,53.8,30.04,SSW,213,0.0,5.0,88,0.00,,---,0.00,VWS V14.01,2013-07-18 04:32:00,
2013-07-17 21:37:00,57.3,53.8,30.05,WSW,242,0.0,0.0,88,0.00,,---,0.00,VWS V14.01,2013-07-18 04:37:00,
2013-07-17 21:42:00,57.2,53.7,30.05,WSW,242,0.0,1.0,88,0.00,,---,0.00,VWS V14.01,2013-07-18 04:42:00,
2013-07-17 21:47:00,57.2,53.7,30.05,WSW,244,0.0,4.0,88,0.00,,---,0.00,VWS V14.01,2013-07-18 04:47:00,
2013-07-17 21:52:00,57.0,53.5,30.05,WSW,244,0.0,4.0,88,0.00,,---,0.00,VWS V14.01,2013-07-18 04:52:00,
2013-07-17 21:57:00,56.9,53.7,30.05,WSW,248,0.0,4.0,89,0.00,,---,0.00,VWS V14.01,2013-07-18 04:57:00,
2013-07-17 22:02:00,56.9,53.7,30.05,SW,225,0.0,4.0,89,0.00,,---,0.00,VWS V14.01,2013-07-18 05:02:00,
2013-07-17 22:07:00,56.7,53.5,30.05,SE,145,0.0,0.0,89,0.00,,---,0.00,VWS V14.01,2013-07-18 05:07:00,
2013-07-17 22:12:00,56.7,53.5,30.05,WSW,250,0.0,0.0,89,0.00,,---,0.00,VWS V14.01,2013-07-18 05:12:00,
2013-07-17 22:17:00,56.7,53.5,30.05,WSW,250,0.0,0.0,89,0.00,,---,0.00,VWS V14.01,2013-07-18 05:17:00,
2013-07-17 22:22:00,56.7,53.5,30.05,SSW,202,0.0,1.0,89,0.00,,---,0.00,VWS V14.01,2013-07-18 05:22:00,
2013-07-17 22:27:00,56.6,53.4,30.05,SSW,202,0.0,1.0,89,0.00,,---,0.00,VWS V14.01,2013-07-18 05:27:00,
2013-07-17 22:32:00,56.5,53.6,30.05,SSW,202,3.0,3.0,90,0.00,,---,0.00,VWS V14.01,2013-07-18 05:32:00,
2013-07-17 22:37:00,56.3,53.4,30.05,SSW,198,0.0,0.0,90,0.00,,---,0.00,VWS V14.01,2013-07-18 05:37:00,
2013-07-17 22:42:00,56.3,53.4,30.05,SSW,198,0.0,0.0,90,0.00,,---,0.00,VWS V14.01,2013-07-18 05:42:00,
2013-07-17 22:47:00,56.3,53.4,30.05,SSW,198,0.0,0.0,90,0.00,,---,0.00,VWS V14.01,2013-07-18 05:47:00,
2013-07-17 22:52:00,56.3,53.4,30.05,SSW,201,0.0,0.0,90,0.00,,---,0.00,VWS V14.01,2013-07-18 05:52:00,
2013-07-17 22:57:00,56.3,53.4,30.05,SSW,201,0.0,0.0,90,0.00,,---,0.00,VWS V14.01,2013-07-18 05:57:00,
2013-07-17 23:02:00,56.3,53.4,30.05,SSW,201,0.0,0.0,90,0.00,,---,0.00,VWS V14.01,2013-07-18 06:02:00,
2013-07-17 23:07:00,56.3,53.7,30.05,SSW,201,0.0,0.0,91,0.00,,---,0.00,VWS V14.01,2013-07-18 06:07:00,
2013-07-17 23:12:00,56.3,53.7,30.05,SSW,201,0.0,0.0,91,0.00,,---,0.00,VWS V14.01,2013-07-18 06:12:00,
2013-07-17 23:18:00,56.3,53.7,30.05,SSW,201,0.0,0.0,91,0.00,,---,0.00,VWS V14.01,2013-07-18 06:18:00,
2013-07-17 23:23:00,56.3,53.7,30.05,SSW,201,0.0,0.0,91,0.00,,---,0.00,VWS V14.01,2013-07-18 06:23:00,
2013-07-17 23:28:00,56.2,53.6,30.05,SSW,200,0.0,0.0,91,0.00,,---,0.00,VWS V14.01,2013-07-18 06:28:00,
2013-07-17 23:33:00,56.0,53.4,30.05,SSW,200,0.0,0.0,91,0.00,,---,0.00,VWS V14.01,2013-07-18 06:33:00,
2013-07-17 23:38:00,56.2,53.6,30.05,SSW,200,0.0,0.0,91,0.00,,---,0.00,VWS V14.01,2013-07-18 06:38:00,
2013-07-17 23:43:00,56.2,53.6,30.05,SSW,200,0.0,0.0,91,0.00,,---,0.00,VWS V14.01,2013-07-18 06:43:00,
2013-07-17 23:48:00,56.2,53.6,30.05,SSW,196,0.0,0.0,91,0.00,,---,0.00,VWS V14.01,2013-07-18 06:48:00,
2013-07-17 23:53:00,56.0,53.4,30.05,East,83,0.0,3.0,91,0.00,,---,0.00,VWS V14.01,2013-07-18 06:53:00,
2013-07-17 23:58:00,55.9,53.3,30.05,South,173,0.0,4.0,91,0.00,,---,0.00,VWS V14.01,2013-07-18 06:58:00,